[[{"header":{"parameterUnit":"m.s-1","parameterCategory":2,"la1":30.2991,"la2":30.254,"lo1":-89.0895,"lo2":-89.0444,"dy":0.0017,"dx":0.0017,"nx":28,"ny":28,"refTime":"2024-10-15T03:00:00:Z","depth":"0","parameterNumber":2,"parameterNumberName":"U-component_of_CURRENTS"},"data":[0,0,0,0,0,0,0,0,0,0,0,0,0,0,0,0,0,0,0,0,0,0,0,0,0,0,0,0,0,0,0,0,0,0,0,0,0,0,0,0,0,0,0,0,0,0,0,0,0,0,0,0,0,0,0,0,0,0,-0.3687,-0.3687,0,-0.3654,-0.3653,-0.3652,-0.3603,-0.3603,-0.3602,-0.3602,-0.3489,-0.3487,-0.3484,0,0,0,0,0,0,0,0,0,0,0,0,0,-0.3624,-0.3625,-0.3687,-0.3687,-0.3687,-0.3654,-0.3653,-0.3652,-0.3603,-0.3603,-0.3602,-0.3602,-0.349,-0.3487,-0.3484,0,0,0,0,0,0,0,0,0,0,0,0,0,-0.3622,-0.3626,-0.3687,-0.3663,-0.366,-0.3654,-0.3653,-0.3652,-0.3603,-0.3603,-0.3602,-0.3602,-0.3491,-0.3487,-0.3484,-0.3471,0,0,-0.3472,-0.347,0,0,0,0,0,0,0,0,-0.3623,-0.3624,-0.3666,-0.3664,-0.3662,-0.3637,-0.359,-0.3589,-0.3603,-0.362,-0.3602,-0.3601,-0.3535,-0.3528,-0.3516,-0.3466,-0.3461,-0.3471,-0.3469,-0.3467,-0.3466,0,0,0,0,0,0,0,-0.3623,-0.3625,-0.3669,-0.3666,-0.3664,-0.3625,-0.3624,-0.3589,-0.3576,-0.3618,-0.3616,-0.362,-0.3533,-0.352,-0.3513,-0.3459,-0.3471,-0.3468,-0.3465,-0.3464,-0.3404,-0.3405,0,0,0,0,0,0,-0.3643,-0.3626,-0.367,-0.3668,-0.3646,-0.3627,-0.3626,-0.3641,-0.3578,-0.357,-0.3621,-0.3618,-0.3527,-0.3518,-0.3509,-0.3508,-0.3467,-0.3463,-0.3461,-0.3403,-0.3404,-0.3405,0,0,0,0,0,0,-0.3642,-0.3647,-0.3671,-0.3649,-0.365,-0.363,-0.3646,-0.3641,-0.3633,-0.3582,-0.3571,-0.362,-0.3527,-0.3515,-0.3491,-0.3503,-0.3462,-0.3458,-0.3402,-0.3404,-0.3405,-0.3495,0,0,0,0,0,0,-0.364,-0.3647,-0.3658,-0.3651,-0.3653,-0.3685,-0.3647,-0.3641,-0.3639,-0.3635,-0.3577,-0.3566,-0.3525,-0.3497,-0.3487,-0.3496,-0.3455,-0.3401,-0.3403,-0.3404,-0.3491,-0.3499,-0.3506,0,0,0,0,0,-0.3638,-0.3669,-0.3659,-0.3664,-0.3671,-0.3687,-0.3684,-0.3662,-0.364,-0.3649,-0.3608,-0.3568,-0.3499,-0.3495,-0.3483,-0.3491,-0.3401,-0.3402,-0.3404,-0.3487,-0.3497,-0.3506,0,0,0,0,0,0,-0.3648,-0.3667,-0.3656,-0.3691,-0.3694,-0.3681,-0.3689,-0.3671,-0.3645,-0.3641,-0.3578,-0.3565,-0.3543,-0.351,-0.3507,-0.3479,-0.3443,-0.3442,-0.3511,-0.3519,-0.3527,-0.3536,-0.3452,0,0,0,0,0,-0.3657,-0.3681,-0.369,-0.3713,-0.3722,-0.3704,-0.3704,-0.3698,-0.3679,-0.3667,-0.3622,-0.3578,-0.3541,-0.3526,-0.3486,-0.3477,-0.3444,-0.3474,-0.3482,-0.3489,-0.3488,-0.3443,-0.3447,-0.3411,-0.3411,-0.3411,0,0,-0.3663,-0.368,-0.369,-0.3716,-0.3714,-0.374,-0.3702,-0.3723,-0.373,-0.3658,-0.3645,-0.3599,-0.3542,-0.3528,-0.3516,-0.3503,-0.3489,-0.3491,-0.3497,-0.3492,-0.3445,-0.3449,-0.3452,-0.3412,-0.3412,-0.3412,0,0,-0.3703,-0.371,-0.3746,-0.376,-0.3781,-0.3773,-0.3784,-0.3779,-0.3763,-0.3755,-0.3698,-0.3663,-0.3613,-0.3574,-0.3547,-0.3573,-0.3524,-0.3564,-0.3615,-0.3572,-0.3575,-0.3576,-0.3574,-0.3575,-0.3575,-0.3576,-0.3576,0,-0.3711,-0.3763,-0.3757,-0.3801,-0.3822,-0.3793,-0.384,-0.382,-0.3802,-0.3789,-0.3766,-0.368,-0.3633,-0.3602,-0.3612,-0.3589,-0.3571,-0.3587,-0.3582,-0.3583,-0.3583,-0.358,-0.3579,-0.358,-0.358,-0.3579,-0.3579,0,-0.3779,-0.3821,-0.3848,-0.389,-0.3906,-0.3947,-0.3935,-0.3931,-0.3904,-0.3873,-0.3834,-0.3767,-0.3717,-0.3698,-0.3663,-0.3643,-0.3634,-0.3592,-0.3561,-0.3592,-0.3587,-0.3585,-0.3587,-0.3585,-0.3584,-0.3583,0,0,-0.3787,-0.3883,-0.3888,-0.3928,-0.3966,-0.3986,-0.4004,-0.4006,-0.4001,-0.3956,-0.3944,-0.387,-0.3822,-0.3788,-0.3733,-0.3697,-0.3692,-0.3657,-0.3653,-0.366,-0.3631,-0.3476,-0.3458,-0.3649,-0.3648,-0.3648,-0.3641,0,-0.384,-0.3955,-0.398,-0.4057,-0.4111,-0.4104,-0.4117,-0.4107,-0.4072,-0.4045,-0.3965,-0.3917,-0.3859,-0.3831,-0.3792,-0.3701,-0.3685,-0.37,-0.3596,-0.3593,-0.3453,-0.3449,-0.3328,-0.3296,-0.3638,-0.3638,-0.3637,0,-0.3881,-0.3962,-0.4072,-0.4153,-0.4173,-0.42,-0.4217,-0.4223,-0.4174,-0.4148,-0.4092,-0.4016,-0.395,-0.3892,-0.3778,-0.3792,-0.373,-0.3664,-0.3662,-0.3476,-0.343,-0.3312,-0.3278,-0.3236,-0.3633,-0.3634,-0.3634,0,-0.3883,-0.4006,-0.4102,-0.4134,-0.4221,-0.4247,-0.4266,-0.4244,-0.4224,-0.4192,-0.4158,-0.4088,-0.4007,-0.3935,-0.377,-0.3791,-0.3632,-0.3646,-0.346,-0.3451,-0.3303,-0.3279,-0.3209,-0.358,-0.358,-0.358,-0.358,0,-0.3926,-0.3988,-0.4108,-0.4159,-0.4222,-0.4272,-0.4292,-0.4297,-0.4276,-0.4215,-0.4192,-0.4101,-0.4002,-0.3877,-0.3797,-0.3587,-0.365,-0.3459,-0.342,-0.3333,-0.3313,-0.3229,-0.3254,-0.358,-0.358,-0.358,-0.358,0,-0.3899,-0.3994,-0.4083,-0.42,-0.4224,-0.4253,-0.4283,-0.4256,-0.4278,-0.42,-0.418,-0.4086,-0.3917,-0.3806,-0.3651,-0.3563,-0.3346,-0.3338,-0.3252,-0.3198,-0.2998,-0.3033,-0.2898,-0.2826,-0.3183,-0.3179,-0.3175,0,-0.3901,-0.3957,-0.4078,-0.4088,-0.4134,-0.4183,-0.4169,-0.4226,-0.4189,-0.4139,-0.4071,-0.3927,-0.3742,-0.3492,-0.3317,-0.3161,-0.3152,-0.2977,-0.2978,-0.295,-0.2962,-0.2987,-0.2941,-0.286,-0.2854,-0.2849,-0.2845,0,-0.3868,-0.3904,-0.3963,-0.3978,-0.3984,-0.3995,-0.4002,-0.399,-0.4002,-0.395,-0.3803,-0.3671,-0.344,-0.3162,-0.2957,-0.286,-0.2899,-0.2871,-0.2858,-0.2699,-0.2707,-0.263,-0.2951,-0.2803,-0.2807,-0.281,-0.2812,-0.2814,-0.3771,-0.3777,-0.38,-0.3791,-0.3798,-0.3724,-0.3658,-0.3666,-0.3579,-0.3432,-0.3476,-0.323,-0.3052,-0.2722,-0.262,-0.2433,-0.2544,-0.2398,-0.2451,-0.2487,-0.2366,-0.2589,-0.2366,-0.2368,-0.2369,-0.237,-0.2371,0,-0.356,-0.357,-0.358,-0.3526,-0.343,-0.3501,-0.3447,-0.3334,-0.3167,-0.3083,-0.2945,-0.2701,-0.2454,-0.2344,-0.2163,-0.2061,-0.2058,-0.2035,-0.2088,-0.2068,-0.2268,-0.2196,-0.1903,-0.1903,-0.1903,-0.1903,-0.1903,-0.1903,-0.3422,-0.334,-0.3344,-0.3127,-0.3095,-0.2892,-0.2819,-0.272,-0.2633,-0.2356,-0.221,-0.2154,-0.2072,-0.2116,-0.1957,-0.1877,-0.1863,-0.1795,-0.1842,-0.204,-0.2081,-0.212,-0.2056,-0.1738,-0.1738,-0.158,-0.1579,-0.1579]},{"header":{"parameterUnit":"m.s-1","parameterCategory":2,"la1":30.2991,"la2":30.254,"lo1":-89.0895,"lo2":-89.0444,"dy":0.0017,"dx":0.0017,"nx":28,"ny":28,"refTime":"2024-10-15T03:00:00:Z","depth":"0","parameterNumber":3,"parameterNumberName":"V-component_of_CURRENTS"},"data":[0,0,0,0,0,0,0,0,0,0,0,0,0,0,0,0,0,0,0,0,0,0,0,0,0,0,0,0,0,0,0,0,0,0,0,0,0,0,0,0,0,0,0,0,0,0,0,0,0,0,0,0,0,0,0,0,0,0,0.0384,0.0385,0,0.0533,0.0535,0.0537,0.0602,0.0602,0.0601,0.0601,0.0716,0.0719,0.0722,0,0,0,0,0,0,0,0,0,0,0,0,0,0.0251,0.0252,0.0384,0.0385,0.0387,0.0533,0.0535,0.0537,0.0602,0.0602,0.0601,0.0601,0.0715,0.0719,0.0723,0,0,0,0,0,0,0,0,0,0,0,0,0,0.0347,0.0253,0.0383,0.0435,0.0441,0.0532,0.0535,0.0538,0.0602,0.0602,0.0601,0.06,0.0713,0.0718,0.0723,0.0768,0,0,0.0739,0.0741,0,0,0,0,0,0,0,0,0.0341,0.0352,0.0426,0.0432,0.0439,0.0546,0.053,0.0612,0.0602,0.0543,0.0601,0.06,0.0655,0.0665,0.0698,0.0773,0.0778,0.074,0.0743,0.0745,0.0746,0,0,0,0,0,0,0,0.0334,0.0346,0.0445,0.0428,0.0436,0.0484,0.0496,0.0547,0.0602,0.0549,0.0553,0.0566,0.0658,0.0693,0.0701,0.078,0.0739,0.0744,0.0747,0.0749,0.0927,0.0929,0,0,0,0,0,0,0.0308,0.034,0.044,0.0449,0.0385,0.0486,0.05,0.0514,0.0602,0.0615,0.0567,0.0569,0.0684,0.0695,0.0705,0.0775,0.0745,0.075,0.0753,0.0926,0.0928,0.093,0,0,0,0,0,0,0.0304,0.0315,0.0434,0.0396,0.0414,0.0488,0.0504,0.0517,0.055,0.0616,0.0628,0.0585,0.0684,0.0698,0.0759,0.0779,0.0752,0.0757,0.0924,0.0926,0.0929,0.0907,0,0,0,0,0,0,0.03,0.0313,0.0318,0.0394,0.0415,0.0486,0.0505,0.0521,0.0559,0.0563,0.0636,0.0646,0.0685,0.0751,0.0764,0.0786,0.0761,0.0922,0.0925,0.0928,0.0905,0.0908,0.091,0,0,0,0,0,0.0294,0.0303,0.0318,0.033,0.0419,0.0487,0.0503,0.0555,0.056,0.0581,0.0632,0.0644,0.078,0.0757,0.0772,0.0795,0.092,0.0924,0.0928,0.0904,0.0908,0.091,0,0,0,0,0,0,0.0252,0.0313,0.033,0.0357,0.0415,0.0497,0.0518,0.0552,0.0612,0.0611,0.0666,0.0681,0.0743,0.0776,0.0749,0.0858,0.0852,0.0859,0.0829,0.0833,0.0835,0.083,0.0765,0,0,0,0,0,0.0242,0.0259,0.0331,0.035,0.0375,0.0444,0.0477,0.0515,0.0576,0.0601,0.0654,0.0713,0.0773,0.0805,0.0861,0.0919,0.0945,0.0946,0.0949,0.095,0.0959,0.1003,0.101,0.0942,0.0942,0.0942,0,0,0.0227,0.0264,0.0272,0.0341,0.0386,0.0432,0.0463,0.0512,0.0557,0.0604,0.0673,0.0721,0.0791,0.086,0.089,0.0887,0.0986,0.0955,0.0956,0.0964,0.1008,0.1014,0.102,0.0944,0.0944,0.0943,0,0,0.0205,0.024,0.0246,0.0299,0.0365,0.0418,0.0427,0.0511,0.0554,0.0628,0.0673,0.0738,0.0826,0.0889,0.0929,0.0982,0.0995,0.0991,0.1003,0.1046,0.1051,0.1056,0.1097,0.1106,0.0994,0.0994,0.0994,0,0.0182,0.0206,0.0261,0.0293,0.0333,0.0406,0.0437,0.0502,0.0598,0.0638,0.0644,0.0795,0.0848,0.0943,0.0964,0.0988,0.1005,0.0979,0.1046,0.1051,0.1057,0.1098,0.1108,0.0993,0.0993,0.0993,0.0993,0,0.0171,0.02,0.0211,0.0273,0.033,0.0367,0.0462,0.0518,0.0571,0.064,0.0738,0.0822,0.0907,0.0938,0.097,0.1043,0.104,0.1037,0.1028,0.1062,0.1104,0.1115,0.0992,0.0993,0.0993,0.0993,0,0,0.0081,0.018,0.018,0.021,0.0322,0.0362,0.0448,0.0544,0.0592,0.0692,0.0759,0.0882,0.092,0.0969,0.1018,0.1066,0.1124,0.1062,0.1065,0.1087,0.1209,0.1182,0.1191,0.1115,0.1117,0.1118,0.1222,0,0.0048,0.0082,0.016,0.0211,0.0237,0.0351,0.0426,0.0529,0.0617,0.0702,0.081,0.0887,0.0934,0.0963,0.1027,0.1098,0.1151,0.1096,0.119,0.1193,0.115,0.1203,0.1155,0.1241,0.1233,0.1235,0.1236,0,-0.0008,0.0033,0.0057,0.0175,0.0199,0.0247,0.0368,0.045,0.0601,0.0671,0.0778,0.0858,0.0975,0.0984,0.1141,0.1094,0.1154,0.1207,0.1211,0.1202,0.1186,0.121,0.1261,0.1393,0.1253,0.1251,0.125,0,-0.0141,-0.0042,-0.0033,0.0005,0.0148,0.0186,0.0269,0.0419,0.0486,0.0634,0.0684,0.0845,0.0908,0.1017,0.1152,0.1136,0.13,0.1292,0.1333,0.1332,0.1322,0.1316,0.1499,0.1393,0.1392,0.1392,0.1392,0,-0.0229,-0.0217,-0.0103,-0.0099,-0.0066,0.008,0.0134,0.0244,0.0392,0.0477,0.0637,0.0725,0.0911,0.1038,0.1149,0.1282,0.1304,0.1353,0.1363,0.1313,0.1306,0.1443,0.1494,0.1396,0.1395,0.1394,0.1394,0,-0.0394,-0.0322,-0.0302,-0.0175,-0.0143,-0.0127,0.0024,0.0084,0.0233,0.0342,0.0383,0.0625,0.0808,0.0991,0.1185,0.1265,0.1457,0.1434,0.1365,0.1365,0.1501,0.155,0.1723,0.1788,0.1496,0.1496,0.1496,0,-0.0472,-0.049,-0.0408,-0.0397,-0.0351,-0.029,-0.0232,-0.0044,0.0039,0.0291,0.0338,0.0553,0.0727,0.101,0.1178,0.1369,0.1489,0.1435,0.1405,0.1523,0.1587,0.1624,0.1668,0.1393,0.1392,0.1391,0.1391,0,-0.0613,-0.0603,-0.0589,-0.0569,-0.053,-0.0461,-0.0356,-0.0312,-0.0063,0.0063,0.0287,0.0444,0.0729,0.0951,0.1184,0.1293,0.1499,0.1424,0.1575,0.1551,0.1578,0.1637,0.1315,0.1385,0.1385,0.1386,0.1386,0.1386,-0.0728,-0.0761,-0.0741,-0.0721,-0.0667,-0.0587,-0.0522,-0.0393,-0.0247,-0.0018,0.017,0.0391,0.0733,0.1059,0.1205,0.146,0.147,0.1537,0.1597,0.1634,0.1668,0.1328,0.1382,0.1383,0.1383,0.1384,0.1384,0,-0.0837,-0.0856,-0.0863,-0.0813,-0.0758,-0.0687,-0.0551,-0.0456,-0.0287,-0.0151,0.0056,0.0428,0.0759,0.1092,0.1473,0.163,0.1675,0.1736,0.1803,0.1849,0.1577,0.1544,0.16,0.16,0.16,0.16,0.16,0.16,-0.0892,-0.0947,-0.0939,-0.0886,-0.0826,-0.0691,-0.0597,-0.0475,-0.0362,-0.0131,0.0057,0.0211,0.0754,0.1466,0.1877,0.1907,0.2085,0.2032,0.2178,0.2006,0.1993,0.1981,0.1966,0.211,0.2111,0.2413,0.2416,0.2418]}],[{"header":{"parameterUnit":"m.s-1","parameterCategory":2,"la1":30.2991,"la2":30.254,"lo1":-89.0895,"lo2":-89.0444,"dy":0.0017,"dx":0.0017,"nx":28,"ny":28,"refTime":"2024-10-15T03:00:00:Z","depth":"2","parameterNumber":2,"parameterNumberName":"U-component_of_CURRENTS"},"data":[0,0,0,0,0,0,0,0,0,0,0,0,0,0,0,0,0,0,0,0,0,0,0,0,0,0,0,0,0,0,0,0,0,0,0,0,0,0,0,0,0,0,0,0,0,0,0,0,0,0,0,0,0,0,0,0,0,0,-0.3114,-0.3114,0,-0.3153,-0.3154,-0.3154,-0.3148,-0.3147,-0.3147,-0.3146,-0.3089,-0.3088,-0.3087,0,0,0,0,0,0,0,0,0,0,0,0,0,-0.306,-0.3061,-0.3113,-0.3114,-0.3115,-0.3153,-0.3154,-0.3154,-0.3148,-0.3147,-0.3147,-0.3146,-0.309,-0.3089,-0.3087,0,0,0,0,0,0,0,0,0,0,0,0,0,-0.3089,-0.3061,-0.3113,-0.3117,-0.3118,-0.3153,-0.3154,-0.3154,-0.3148,-0.3147,-0.3146,-0.3146,-0.309,-0.3089,-0.3087,-0.3095,0,0,-0.3083,-0.3082,0,0,0,0,0,0,0,0,-0.3087,-0.309,-0.3116,-0.3117,-0.3118,-0.3146,-0.3114,-0.313,-0.3148,-0.3135,-0.3146,-0.3145,-0.3101,-0.3098,-0.3107,-0.3092,-0.309,-0.3083,-0.3082,-0.3081,-0.3081,0,0,0,0,0,0,0,-0.3085,-0.3089,-0.3128,-0.3117,-0.3118,-0.3127,-0.3129,-0.3118,-0.312,-0.3136,-0.3136,-0.3143,-0.31,-0.3109,-0.3106,-0.3089,-0.3083,-0.3081,-0.308,-0.308,-0.3084,-0.3085,0,0,0,0,0,0,-0.3082,-0.3087,-0.3127,-0.3129,-0.3101,-0.3128,-0.3131,-0.3137,-0.3122,-0.312,-0.3144,-0.3143,-0.3112,-0.3107,-0.3104,-0.313,-0.3081,-0.308,-0.3079,-0.3083,-0.3084,-0.3085,0,0,0,0,0,0,-0.3081,-0.3085,-0.3125,-0.311,-0.3116,-0.313,-0.3136,-0.3138,-0.3155,-0.3129,-0.3124,-0.3159,-0.3111,-0.3106,-0.3103,-0.3127,-0.3079,-0.3078,-0.3082,-0.3083,-0.3085,-0.317,0,0,0,0,0,0,-0.3079,-0.3085,-0.3095,-0.311,-0.3117,-0.3158,-0.3137,-0.3139,-0.316,-0.3159,-0.314,-0.3134,-0.311,-0.3106,-0.3102,-0.3124,-0.3077,-0.308,-0.3082,-0.3084,-0.3166,-0.3175,-0.3182,0,0,0,0,0,-0.3077,-0.3093,-0.3095,-0.3101,-0.3128,-0.3159,-0.3164,-0.317,-0.3162,-0.3179,-0.3163,-0.3135,-0.3114,-0.3106,-0.3101,-0.3123,-0.3079,-0.3082,-0.3084,-0.3163,-0.3173,-0.3182,0,0,0,0,0,0,-0.3059,-0.3095,-0.3097,-0.3118,-0.3143,-0.3159,-0.3182,-0.318,-0.3185,-0.3186,-0.3149,-0.3143,-0.3147,-0.3124,-0.3115,-0.3129,-0.3092,-0.3093,-0.3154,-0.3163,-0.317,-0.3175,-0.3075,0,0,0,0,0,-0.3065,-0.3091,-0.3119,-0.3133,-0.3157,-0.3172,-0.3187,-0.3195,-0.3198,-0.3201,-0.3188,-0.317,-0.3154,-0.315,-0.3134,-0.3146,-0.3121,-0.3155,-0.3163,-0.317,-0.3171,-0.3144,-0.3149,-0.3092,-0.3092,-0.3092,0,0,-0.3051,-0.3082,-0.3089,-0.3133,-0.3157,-0.3201,-0.318,-0.3217,-0.324,-0.3192,-0.3221,-0.3197,-0.3161,-0.3172,-0.3173,-0.3157,-0.318,-0.3173,-0.3179,-0.3176,-0.3147,-0.3152,-0.3157,-0.3094,-0.3094,-0.3093,0,0,-0.3061,-0.3082,-0.312,-0.3156,-0.3209,-0.3227,-0.3241,-0.3275,-0.3282,-0.3304,-0.3271,-0.3259,-0.3251,-0.3228,-0.3212,-0.3252,-0.3219,-0.3254,-0.3301,-0.3277,-0.3281,-0.3284,-0.3289,-0.3292,-0.3262,-0.3262,-0.3262,0,-0.3049,-0.3099,-0.3132,-0.319,-0.3223,-0.3243,-0.3291,-0.3309,-0.333,-0.3338,-0.3323,-0.3303,-0.3273,-0.3267,-0.3283,-0.3269,-0.3261,-0.3271,-0.3287,-0.3289,-0.3291,-0.3295,-0.3297,-0.3266,-0.3266,-0.3265,-0.3265,0,-0.3095,-0.3141,-0.3172,-0.3253,-0.3293,-0.3337,-0.3377,-0.341,-0.3419,-0.3425,-0.3428,-0.3388,-0.337,-0.3364,-0.3336,-0.3341,-0.3335,-0.3297,-0.3264,-0.3302,-0.3304,-0.3305,-0.3272,-0.3271,-0.327,-0.3268,0,0,-0.3031,-0.3178,-0.3187,-0.3236,-0.3332,-0.3362,-0.3427,-0.3476,-0.35,-0.3511,-0.3529,-0.3498,-0.3474,-0.3453,-0.3414,-0.3395,-0.3409,-0.3364,-0.3361,-0.3372,-0.3384,-0.3192,-0.3174,-0.3379,-0.3379,-0.3379,-0.339,0,-0.3052,-0.317,-0.324,-0.3326,-0.3379,-0.3442,-0.3494,-0.3541,-0.3561,-0.3587,-0.3554,-0.3551,-0.3508,-0.3496,-0.3474,-0.3425,-0.3411,-0.3411,-0.3342,-0.3341,-0.3166,-0.3167,-0.2936,-0.2909,-0.3391,-0.3391,-0.3391,0,-0.3062,-0.314,-0.3248,-0.3363,-0.3394,-0.346,-0.3542,-0.359,-0.3639,-0.3651,-0.3653,-0.3627,-0.3615,-0.3557,-0.3504,-0.3512,-0.3456,-0.3413,-0.3412,-0.3196,-0.3146,-0.2942,-0.2892,-0.3391,-0.3391,-0.3391,-0.3391,0,-0.298,-0.313,-0.3217,-0.326,-0.3402,-0.3464,-0.3538,-0.3611,-0.3642,-0.3693,-0.37,-0.3693,-0.3664,-0.3619,-0.3512,-0.3528,-0.3433,-0.3441,-0.322,-0.3209,-0.2975,-0.294,-0.3386,-0.3386,-0.3386,-0.3386,-0.3386,0,-0.2949,-0.3006,-0.3197,-0.3235,-0.3327,-0.3441,-0.3523,-0.3588,-0.3666,-0.3665,-0.3718,-0.3668,-0.3671,-0.3603,-0.3541,-0.3359,-0.3451,-0.3219,-0.3181,-0.3,-0.2968,-0.3348,-0.3343,-0.3387,-0.3387,-0.3387,-0.3387,0,-0.282,-0.2958,-0.3053,-0.3232,-0.3293,-0.3355,-0.3523,-0.3552,-0.3649,-0.3648,-0.3661,-0.3669,-0.3568,-0.3533,-0.3441,-0.3346,-0.3228,-0.3132,-0.2927,-0.286,-0.3041,-0.3041,-0.2948,-0.2941,-0.2935,-0.293,-0.2926,0,-0.2774,-0.2807,-0.3018,-0.3077,-0.3167,-0.3292,-0.3356,-0.3516,-0.3531,-0.3581,-0.3538,-0.3498,-0.331,-0.3146,-0.3026,-0.289,-0.3026,-0.2624,-0.2583,-0.3015,-0.2989,-0.2999,-0.3006,-0.2349,-0.234,-0.2333,-0.2328,0,-0.2629,-0.2717,-0.2799,-0.2933,-0.3037,-0.3122,-0.3228,-0.3227,-0.3344,-0.3295,-0.3154,-0.3019,-0.2892,-0.2604,-0.2487,-0.2394,-0.264,-0.2471,-0.2957,-0.2466,-0.244,-0.2418,-0.2448,-0.2265,-0.2271,-0.2276,-0.2279,-0.2282,-0.2502,-0.2534,-0.2656,-0.2755,-0.2863,-0.2873,-0.2818,-0.2857,-0.2778,-0.2604,-0.2676,-0.2397,-0.2393,-0.2022,-0.1936,-0.1967,-0.2134,-0.2091,-0.2117,-0.215,-0.2048,-0.2009,-0.1738,-0.1742,-0.1744,-0.1747,-0.1749,0,-0.2307,-0.2372,-0.2458,-0.2554,-0.2527,-0.2684,-0.2651,-0.2446,-0.2181,-0.2167,-0.1951,-0.1641,-0.1449,-0.155,-0.1457,-0.143,-0.1481,-0.1428,-0.1508,-0.1566,-0.162,-0.1498,-0.1039,-0.1038,-0.1036,-0.1035,0,0,-0.2209,-0.2203,-0.226,-0.2177,-0.2226,-0.2086,-0.1983,-0.1669,-0.1549,-0.1237,-0.1172,-0.1198,-0.1357,-0.1127,-0.112,-0.1075,-0.1312,-0.103,-0.1584,-0.1727,-0.1779,-0.197,-0.1841,0,0,0,0,0]},{"header":{"parameterUnit":"m.s-1","parameterCategory":2,"la1":30.2991,"la2":30.254,"lo1":-89.0895,"lo2":-89.0444,"dy":0.0017,"dx":0.0017,"nx":28,"ny":28,"refTime":"2024-10-15T03:00:00:Z","depth":"2","parameterNumber":3,"parameterNumberName":"V-component_of_CURRENTS"},"data":[0,0,0,0,0,0,0,0,0,0,0,0,0,0,0,0,0,0,0,0,0,0,0,0,0,0,0,0,0,0,0,0,0,0,0,0,0,0,0,0,0,0,0,0,0,0,0,0,0,0,0,0,0,0,0,0,0,0,-0.0255,-0.0253,0,-0.0065,-0.0063,-0.0061,0.0069,0.007,0.0071,0.0072,0.0282,0.0287,0.0292,0,0,0,0,0,0,0,0,0,0,0,0,0,-0.0333,-0.0333,-0.0255,-0.0253,-0.0251,-0.0066,-0.0063,-0.006,0.0069,0.007,0.0071,0.0072,0.028,0.0286,0.0292,0,0,0,0,0,0,0,0,0,0,0,0,0,-0.0235,-0.0333,-0.0256,-0.0166,-0.0156,-0.0066,-0.0063,-0.0059,0.0069,0.007,0.0071,0.0072,0.0278,0.0286,0.0293,0.0316,0,0,0.0315,0.0319,0,0,0,0,0,0,0,0,-0.0241,-0.0232,-0.0181,-0.0172,-0.0161,-0.0023,-0.0013,0.0066,0.0069,-0.0014,0.0072,0.0073,0.0179,0.0195,0.0232,0.0326,0.0335,0.0316,0.032,0.0324,0.0326,0,0,0,0,0,0,0,-0.0248,-0.0238,-0.0178,-0.0179,-0.0167,-0.0076,-0.0062,0.0004,0.0077,-0.0006,0.0003,0.002,0.0186,0.0224,0.0237,0.0338,0.0316,0.0322,0.0327,0.033,0.0562,0.0563,0,0,0,0,0,0,-0.0287,-0.0246,-0.0184,-0.0172,-0.0202,-0.0076,-0.0061,-0.0066,0.0076,0.0098,0.0018,0.0025,0.0211,0.0229,0.0245,0.0362,0.0324,0.0331,0.0335,0.056,0.0562,0.0564,0,0,0,0,0,0,-0.029,-0.0284,-0.0191,-0.0205,-0.0187,-0.0078,-0.0084,-0.0063,-0.0001,0.0094,0.0117,0.0061,0.0213,0.0235,0.0328,0.0367,0.0334,0.0341,0.0558,0.0561,0.0563,0.0542,0,0,0,0,0,0,-0.0293,-0.0287,-0.0282,-0.0209,-0.0188,-0.0146,-0.0084,-0.006,0.0005,0.0016,0.0138,0.0157,0.0215,0.0316,0.0335,0.0377,0.0346,0.0556,0.0559,0.0562,0.0541,0.0544,0.0546,0,0,0,0,0,-0.0297,-0.0309,-0.0284,-0.0274,-0.0194,-0.0147,-0.0128,-0.0043,0.0006,0.0021,0.012,0.0155,0.0351,0.0323,0.0345,0.039,0.0554,0.0558,0.0562,0.0539,0.0543,0.0546,0,0,0,0,0,0,-0.0351,-0.0295,-0.0266,-0.0263,-0.0211,-0.0126,-0.0089,-0.0038,0.0055,0.0084,0.0174,0.02,0.0301,0.0344,0.0311,0.0467,0.046,0.0468,0.0435,0.0439,0.0442,0.0418,0.0352,0,0,0,0,0,-0.0363,-0.0356,-0.0291,-0.0293,-0.0259,-0.017,-0.0129,-0.0077,0.0004,0.0048,0.0143,0.0244,0.033,0.038,0.0461,0.0538,0.0571,0.0583,0.0586,0.0588,0.0584,0.0648,0.0656,0.0577,0.0577,0.0577,0,0,-0.0395,-0.0356,-0.0357,-0.0302,-0.0241,-0.0201,-0.0141,-0.0085,-0.0034,0.0055,0.0173,0.0258,0.0353,0.0451,0.0499,0.0493,0.0634,0.0593,0.0594,0.0589,0.0653,0.0661,0.0667,0.058,0.0579,0.0579,0,0,-0.0446,-0.0407,-0.0405,-0.0364,-0.0281,-0.0215,-0.0201,-0.0095,-0.0022,0.0076,0.0168,0.0269,0.0402,0.0483,0.0537,0.06,0.0647,0.0636,0.0633,0.0696,0.0702,0.0708,0.0775,0.0787,0.0636,0.0636,0.0636,0,-0.0478,-0.0478,-0.0399,-0.0378,-0.0338,-0.0226,-0.0204,-0.0119,0.0007,0.0076,0.0108,0.0338,0.0417,0.0538,0.0569,0.0606,0.0649,0.0608,0.0696,0.0703,0.0709,0.0776,0.079,0.0635,0.0635,0.0635,0.0636,0,-0.0523,-0.0514,-0.0507,-0.0438,-0.0374,-0.0352,-0.0224,-0.0134,-0.0024,0.0067,0.0223,0.034,0.0471,0.052,0.0568,0.0669,0.0688,0.0689,0.0678,0.0715,0.0785,0.0799,0.0635,0.0635,0.0635,0.0635,0,0,-0.0633,-0.0558,-0.0555,-0.0542,-0.0409,-0.0377,-0.025,-0.0122,-0.0056,0.0108,0.0205,0.0381,0.0462,0.0527,0.0611,0.0672,0.0764,0.0699,0.0703,0.0749,0.0913,0.08,0.0805,0.0779,0.0781,0.0783,0.0948,0,-0.0695,-0.0702,-0.061,-0.0595,-0.0588,-0.0428,-0.0337,-0.0192,-0.0053,0.0073,0.0249,0.0368,0.046,0.052,0.0607,0.0733,0.0799,0.0719,0.0885,0.089,0.0769,0.0816,0.0731,0.0858,0.0962,0.0964,0.0966,0,-0.0764,-0.0764,-0.0764,-0.0694,-0.0666,-0.061,-0.0441,-0.0347,-0.0122,-0.0013,0.0167,0.0304,0.0492,0.0516,0.0768,0.0717,0.0812,0.089,0.0898,0.0804,0.0801,0.0838,0.088,0.099,0.0988,0.0986,0.0985,0,-0.0901,-0.0868,-0.0875,-0.0857,-0.0743,-0.0675,-0.0576,-0.0367,-0.0285,-0.0058,0.001,0.0268,0.0384,0.0566,0.0792,0.0782,0.1021,0.1023,0.1012,0.1007,0.097,0.0955,0.1148,0.1148,0.1148,0.1147,0.1147,0,-0.1022,-0.1032,-0.095,-0.0969,-0.0965,-0.0802,-0.0736,-0.0601,-0.0408,-0.0321,-0.0053,0.005,0.0393,0.0594,0.0781,0.0958,0.1031,0.1017,0.1037,0.0961,0.0944,0.1078,0.1068,0.1153,0.1152,0.1151,0.115,0,-0.1173,-0.112,-0.1153,-0.1068,-0.1037,-0.1025,-0.0865,-0.0813,-0.0615,-0.0495,-0.0419,-0.0087,0.0189,0.0499,0.0805,0.0908,0.11,0.1126,0.1017,0.1016,0.1049,0.1036,0.1136,0.1133,0.1131,0.1129,0.1127,0,-0.1232,-0.1276,-0.1265,-0.1283,-0.1242,-0.1191,-0.1139,-0.0936,-0.0865,-0.0585,-0.0542,-0.0233,-0.004,0.0383,0.0668,0.0965,0.1053,0.1011,0.0945,0.1036,0.1047,0.1038,0.1028,0.0926,0.0923,0.092,0.0918,0,-0.1373,-0.1375,-0.1411,-0.1467,-0.1445,-0.1414,-0.1318,-0.1293,-0.1034,-0.0924,-0.0707,-0.0535,-0.0141,0.0178,0.054,0.0706,0.0963,0.0955,0.1128,0.0894,0.0838,0.0847,0.0846,0.0896,0.0898,0.09,0.0901,0.0902,-0.1456,-0.1541,-0.1585,-0.1629,-0.1618,-0.1564,-0.1505,-0.1393,-0.127,-0.1005,-0.0877,-0.0579,-0.0296,0.0203,0.0453,0.0737,0.0742,0.0824,0.0834,0.0847,0.0744,0.0681,0.0694,0.0695,0.0696,0.0697,0.0698,0,-0.1559,-0.1638,-0.1717,-0.1733,-0.1723,-0.1669,-0.1561,-0.1428,-0.1268,-0.1081,-0.0873,-0.0547,-0.0266,0.0109,0.0454,0.0593,0.0642,0.0673,0.0717,0.0734,0.0751,0.0648,0.0571,0.0572,0.0573,0.0574,0,0,-0.1608,-0.1735,-0.1785,-0.1792,-0.177,-0.1659,-0.1571,-0.1358,-0.1172,-0.0942,-0.0735,-0.0552,-0.0225,0.001,0.0225,0.0426,0.0551,0.045,0.0519,0.0556,0.0572,0.0788,0.0639,0,0,0,0,0]}],[{"header":{"parameterUnit":"m.s-1","parameterCategory":2,"la1":30.2991,"la2":30.254,"lo1":-89.0895,"lo2":-89.0444,"dy":0.0017,"dx":0.0017,"nx":28,"ny":28,"refTime":"2024-10-15T03:00:00:Z","depth":"4","parameterNumber":2,"parameterNumberName":"U-component_of_CURRENTS"},"data":[0,0,0,0,0,0,0,0,0,0,0,0,0,0,0,0,0,0,0,0,0,0,0,0,0,0,0,0,0,0,0,0,0,0,0,0,0,0,0,0,0,0,0,0,0,0,0,0,0,0,0,0,0,0,0,0,0,0,-0.0925,-0.0926,0,-0.0994,-0.0995,-0.0996,-0.1071,-0.1072,-0.1073,-0.1074,-0.1168,-0.117,-0.1171,0,0,0,0,0,0,0,0,0,0,0,0,0,-0.0872,-0.0872,-0.0925,-0.0926,-0.0926,-0.0994,-0.0995,-0.0996,-0.1071,-0.1072,-0.1073,-0.1074,-0.1167,-0.1169,-0.1171,0,0,0,0,0,0,0,0,0,0,0,0,0,-0.0915,-0.0873,-0.0925,-0.097,-0.0975,-0.0994,-0.0995,-0.0996,-0.1071,-0.1072,-0.1074,-0.1075,-0.1167,-0.1169,-0.1172,-0.1161,0,0,-0.1179,-0.1181,0,0,0,0,0,0,0,0,-0.0913,-0.0917,-0.0963,-0.0967,-0.0972,-0.1023,-0.101,-0.1052,-0.1071,-0.1037,-0.1074,-0.1076,-0.1119,-0.1126,-0.1139,-0.1165,-0.1169,-0.118,-0.1181,-0.1182,-0.1183,0,0,0,0,0,0,0,-0.0909,-0.0915,-0.0955,-0.0964,-0.0969,-0.0991,-0.0999,-0.1019,-0.1072,-0.104,-0.1045,-0.1049,-0.1123,-0.1136,-0.1142,-0.1171,-0.118,-0.1182,-0.1183,-0.1184,-0.1293,-0.1294,0,0,0,0,0,0,-0.0894,-0.0912,-0.0953,-0.0957,-0.0942,-0.0991,-0.1,-0.1008,-0.1072,-0.1082,-0.1047,-0.1052,-0.1131,-0.1139,-0.1145,-0.1251,-0.1182,-0.1185,-0.1186,-0.1292,-0.1293,-0.1295,0,0,0,0,0,0,-0.0893,-0.0897,-0.095,-0.0934,-0.0942,-0.099,-0.0998,-0.1008,-0.1047,-0.1077,-0.1088,-0.1078,-0.1133,-0.1142,-0.1198,-0.1251,-0.1186,-0.1188,-0.129,-0.1292,-0.1294,-0.1389,0,0,0,0,0,0,-0.0891,-0.0896,-0.0915,-0.0933,-0.0942,-0.0974,-0.0997,-0.1009,-0.1044,-0.1051,-0.1106,-0.1115,-0.1134,-0.1194,-0.1201,-0.1253,-0.119,-0.1288,-0.1291,-0.1293,-0.1384,-0.1394,-0.1403,0,0,0,0,0,-0.0889,-0.0893,-0.0916,-0.0921,-0.096,-0.0974,-0.0982,-0.1022,-0.1044,-0.1062,-0.1112,-0.1115,-0.1215,-0.1198,-0.1205,-0.1259,-0.1287,-0.129,-0.1293,-0.138,-0.1392,-0.1403,0,0,0,0,0,0,-0.0878,-0.0902,-0.0927,-0.094,-0.0966,-0.0987,-0.1,-0.103,-0.1082,-0.1095,-0.1132,-0.1145,-0.1206,-0.1213,-0.1193,-0.1295,-0.1251,-0.1256,-0.1315,-0.1326,-0.1335,-0.134,-0.1192,0,0,0,0,0,-0.0883,-0.0895,-0.0923,-0.0935,-0.0943,-0.0978,-0.0995,-0.1023,-0.1059,-0.1084,-0.114,-0.1185,-0.1218,-0.1257,-0.1278,-0.1341,-0.1349,-0.1378,-0.1387,-0.1395,-0.1402,-0.1496,-0.1515,-0.1305,-0.1305,-0.1305,0,0,-0.0886,-0.0895,-0.0908,-0.0934,-0.0951,-0.0977,-0.0992,-0.1014,-0.1064,-0.1083,-0.1182,-0.121,-0.1234,-0.1305,-0.1335,-0.1328,-0.145,-0.1399,-0.1406,-0.1409,-0.1501,-0.1522,-0.1541,-0.1307,-0.1307,-0.1306,0,0,-0.0876,-0.0898,-0.0908,-0.0932,-0.0959,-0.0979,-0.099,-0.1042,-0.1094,-0.1158,-0.12,-0.1256,-0.1319,-0.1369,-0.1388,-0.1453,-0.1479,-0.1479,-0.1559,-0.1651,-0.1669,-0.1686,-0.1687,-0.1703,-0.1506,-0.1507,-0.1507,0,-0.0879,-0.0892,-0.0914,-0.093,-0.0948,-0.0982,-0.1003,-0.1058,-0.1141,-0.1186,-0.1192,-0.1321,-0.1335,-0.1441,-0.148,-0.1474,-0.1523,-0.152,-0.1666,-0.1683,-0.1699,-0.1696,-0.1712,-0.1512,-0.1511,-0.151,-0.151,0,-0.0879,-0.0903,-0.0899,-0.0938,-0.0971,-0.0978,-0.1049,-0.1117,-0.1166,-0.122,-0.1332,-0.1385,-0.1462,-0.1491,-0.1508,-0.1652,-0.1644,-0.1653,-0.1644,-0.1727,-0.1716,-0.1732,-0.1519,-0.1517,-0.1515,-0.1514,0,0,-0.0835,-0.0887,-0.0892,-0.0916,-0.0969,-0.099,-0.1077,-0.115,-0.1212,-0.1318,-0.1409,-0.1499,-0.1553,-0.1581,-0.1646,-0.1751,-0.1877,-0.1783,-0.1786,-0.1792,-0.2061,-0.181,-0.1802,-0.1963,-0.1968,-0.1971,-0.1996,0,-0.0819,-0.0845,-0.0884,-0.0928,-0.0942,-0.1013,-0.1092,-0.1182,-0.1251,-0.1359,-0.1454,-0.1557,-0.1586,-0.166,-0.1765,-0.1871,-0.1933,-0.1866,-0.1972,-0.1972,-0.175,-0.1817,-0.1984,-0.2007,-0.2011,-0.2013,-0.2015,0,-0.08,-0.0819,-0.085,-0.0922,-0.0937,-0.0974,-0.1082,-0.1178,-0.1327,-0.1387,-0.1517,-0.1607,-0.1793,-0.1786,-0.2004,-0.1991,-0.2021,-0.2077,-0.2079,-0.1826,-0.1752,-0.1916,-0.2043,-0.2041,-0.2039,-0.2037,-0.2035,0,-0.074,-0.0793,-0.0811,-0.0835,-0.093,-0.0966,-0.1036,-0.1173,-0.1254,-0.1445,-0.1506,-0.1714,-0.1801,-0.1972,-0.2011,-0.2091,-0.2165,-0.2271,-0.2045,-0.2025,-0.2202,-0.2185,-0.2364,-0.2364,-0.2364,-0.2364,-0.2364,0,-0.0689,-0.0709,-0.0779,-0.0789,-0.0827,-0.0934,-0.1003,-0.1108,-0.125,-0.1307,-0.1542,-0.1583,-0.1868,-0.1919,-0.2024,-0.2013,-0.2153,-0.2053,-0.2031,-0.2231,-0.2217,-0.221,-0.2192,-0.2365,-0.2365,-0.2365,-0.2365,0,-0.062,-0.0668,-0.0689,-0.0768,-0.0795,-0.0838,-0.0953,-0.1011,-0.1179,-0.1265,-0.1347,-0.1521,-0.1637,-0.1772,-0.194,-0.1944,-0.201,-0.1917,-0.2006,-0.1988,-0.1839,-0.1826,-0.1861,-0.1853,-0.1846,-0.184,-0.1835,0,-0.0584,-0.0585,-0.0651,-0.0667,-0.0688,-0.0761,-0.0808,-0.0957,-0.0996,-0.1163,-0.1171,-0.1313,-0.1407,-0.1441,-0.1602,-0.1744,-0.1717,-0.1729,-0.1939,-0.182,-0.1798,-0.1795,-0.1791,-0.1824,-0.1822,-0.1821,-0.1819,0,-0.0504,-0.0526,-0.0547,-0.0576,-0.0598,-0.0644,-0.0698,-0.0701,-0.0856,-0.0992,-0.1008,-0.1115,-0.115,-0.1313,-0.1309,-0.1422,-0.1783,-0.166,-0.1682,-0.1881,-0.1776,-0.1759,-0.1764,-0.1794,-0.1798,-0.18,-0.1802,0,-0.0442,-0.0427,-0.0455,-0.0479,-0.0514,-0.0518,-0.056,-0.0585,-0.0652,-0.082,-0.0751,-0.0924,-0.1025,-0.1123,-0.1135,-0.1213,-0.1358,-0.1436,-0.1474,-0.1503,-0.1383,-0.1197,-0.102,0,0,0,0,0,-0.0378,-0.0359,-0.0365,-0.0383,-0.0416,-0.0438,-0.049,-0.0538,-0.0618,-0.0596,-0.0693,-0.0729,-0.0852,-0.0922,-0.0972,-0.1072,-0.1371,-0.1129,-0.1479,-0.166,-0.1688,-0.1586,0,0,0,0,0,0,-0.0339,-0.033,-0.0331,-0.0306,-0.0304,-0.0327,-0.0353,-0.0407,-0.0409,-0.0506,-0.0572,-0.0686,-0.0814,-0.0808,-0.095,-0.0983,-0.1197,-0.1228,-0.1227,-0.1644,-0.167,-0.1692,-0.1597,0,0,0,0,0]},{"header":{"parameterUnit":"m.s-1","parameterCategory":2,"la1":30.2991,"la2":30.254,"lo1":-89.0895,"lo2":-89.0444,"dy":0.0017,"dx":0.0017,"nx":28,"ny":28,"refTime":"2024-10-15T03:00:00:Z","depth":"4","parameterNumber":3,"parameterNumberName":"V-component_of_CURRENTS"},"data":[0,0,0,0,0,0,0,0,0,0,0,0,0,0,0,0,0,0,0,0,0,0,0,0,0,0,0,0,0,0,0,0,0,0,0,0,0,0,0,0,0,0,0,0,0,0,0,0,0,0,0,0,0,0,0,0,0,0,-0.055,-0.055,0,-0.0552,-0.0552,-0.0552,-0.054,-0.054,-0.0539,-0.0539,-0.0511,-0.051,-0.051,0,0,0,0,0,0,0,0,0,0,0,0,0,-0.0551,-0.0551,-0.055,-0.055,-0.055,-0.0552,-0.0552,-0.0552,-0.054,-0.054,-0.0539,-0.0539,-0.0511,-0.051,-0.051,0,0,0,0,0,0,0,0,0,0,0,0,0,-0.0553,-0.0551,-0.055,-0.0543,-0.0543,-0.0551,-0.0552,-0.0552,-0.0541,-0.054,-0.0539,-0.0539,-0.0511,-0.051,-0.051,-0.052,0,0,-0.0508,-0.0508,0,0,0,0,0,0,0,0,-0.0553,-0.0553,-0.0545,-0.0544,-0.0543,-0.0544,-0.0542,-0.0539,-0.0541,-0.0543,-0.0539,-0.0538,-0.0519,-0.0517,-0.0522,-0.0519,-0.0518,-0.0508,-0.0508,-0.0508,-0.0508,0,0,0,0,0,0,0,-0.0553,-0.0553,-0.0552,-0.0544,-0.0544,-0.0545,-0.0544,-0.0541,-0.0535,-0.0543,-0.0541,-0.054,-0.0518,-0.0522,-0.0521,-0.0517,-0.0508,-0.0508,-0.0508,-0.0507,-0.0539,-0.054,0,0,0,0,0,0,-0.055,-0.0553,-0.0552,-0.0552,-0.0545,-0.0545,-0.0545,-0.0545,-0.0536,-0.0533,-0.054,-0.0539,-0.0523,-0.0521,-0.052,-0.0563,-0.0508,-0.0507,-0.0507,-0.0538,-0.0539,-0.0541,0,0,0,0,0,0,-0.055,-0.055,-0.0552,-0.0551,-0.0551,-0.0546,-0.0547,-0.0546,-0.0557,-0.0534,-0.0531,-0.0553,-0.0523,-0.052,-0.0526,-0.0561,-0.0507,-0.0507,-0.0537,-0.0538,-0.054,-0.063,0,0,0,0,0,0,-0.055,-0.055,-0.0562,-0.0551,-0.0551,-0.0568,-0.0547,-0.0546,-0.0556,-0.0555,-0.0544,-0.054,-0.0522,-0.0527,-0.0526,-0.0559,-0.0506,-0.0535,-0.0537,-0.0539,-0.0625,-0.0634,-0.0642,0,0,0,0,0,-0.055,-0.0562,-0.0563,-0.0563,-0.0564,-0.0569,-0.057,-0.0564,-0.0557,-0.0571,-0.0561,-0.0541,-0.054,-0.0528,-0.0526,-0.056,-0.0534,-0.0537,-0.0539,-0.0622,-0.0633,-0.0642,0,0,0,0,0,0,-0.0565,-0.0562,-0.0562,-0.0572,-0.0577,-0.0567,-0.0578,-0.0574,-0.0579,-0.0579,-0.0554,-0.0551,-0.057,-0.055,-0.0538,-0.0574,-0.0534,-0.0537,-0.0598,-0.0608,-0.0616,-0.064,-0.0506,0,0,0,0,0,-0.0576,-0.0586,-0.0582,-0.0592,-0.0596,-0.0592,-0.0597,-0.0595,-0.0591,-0.0593,-0.0589,-0.0582,-0.0579,-0.0581,-0.0576,-0.0597,-0.0565,-0.0616,-0.0625,-0.0632,-0.065,-0.0599,-0.0604,-0.0549,-0.0549,-0.0549,0,0,-0.0585,-0.0583,-0.0591,-0.0597,-0.0599,-0.0626,-0.0594,-0.0607,-0.0636,-0.0589,-0.0631,-0.0612,-0.059,-0.0614,-0.0621,-0.0602,-0.0637,-0.0635,-0.0642,-0.0656,-0.0602,-0.0608,-0.0612,-0.0551,-0.055,-0.055,0,0,-0.0611,-0.0607,-0.0632,-0.0642,-0.0652,-0.0654,-0.0662,-0.0669,-0.0678,-0.0704,-0.0681,-0.0685,-0.0685,-0.0684,-0.0678,-0.0729,-0.0681,-0.0726,-0.0792,-0.0743,-0.0747,-0.075,-0.0741,-0.0743,-0.0732,-0.0732,-0.0732,0,-0.0624,-0.0654,-0.0641,-0.0671,-0.0689,-0.0672,-0.0713,-0.0723,-0.0735,-0.0749,-0.0728,-0.0742,-0.0722,-0.0751,-0.077,-0.0751,-0.072,-0.0756,-0.0753,-0.0755,-0.0757,-0.0747,-0.0747,-0.0736,-0.0736,-0.0735,-0.0735,0,-0.0669,-0.0704,-0.0717,-0.0755,-0.0775,-0.08,-0.0813,-0.0839,-0.0843,-0.0848,-0.0877,-0.0852,-0.0857,-0.0854,-0.0828,-0.0845,-0.082,-0.0767,-0.0728,-0.0768,-0.0755,-0.0754,-0.0743,-0.0741,-0.074,-0.0739,0,0,-0.0667,-0.0738,-0.0745,-0.0789,-0.0822,-0.0843,-0.0895,-0.0933,-0.0969,-0.0974,-0.1021,-0.1012,-0.099,-0.0983,-0.0954,-0.0922,-0.0912,-0.0858,-0.0853,-0.0852,-0.0827,-0.0704,-0.069,-0.0843,-0.0842,-0.0842,-0.0823,0,-0.0709,-0.0789,-0.0814,-0.0901,-0.0943,-0.0959,-0.1011,-0.1043,-0.1055,-0.1097,-0.1073,-0.1099,-0.1041,-0.1049,-0.1008,-0.0934,-0.0909,-0.0925,-0.0787,-0.0785,-0.067,-0.0684,-0.0841,-0.0822,-0.0822,-0.0822,-0.0821,0,-0.0744,-0.0797,-0.0891,-0.0984,-0.1004,-0.1055,-0.1127,-0.1177,-0.1216,-0.1221,-0.1231,-0.1212,-0.1206,-0.1133,-0.1032,-0.1038,-0.095,-0.0884,-0.088,-0.0731,-0.0657,-0.0766,-0.0818,-0.0819,-0.0819,-0.0819,-0.0819,0,-0.0747,-0.0849,-0.093,-0.096,-0.1059,-0.1109,-0.1163,-0.1215,-0.1248,-0.131,-0.1329,-0.1308,-0.1299,-0.1189,-0.105,-0.1039,-0.0917,-0.0877,-0.0696,-0.0689,-0.0768,-0.0765,-0.0801,-0.0801,-0.0801,-0.0801,-0.0801,0,-0.0774,-0.0839,-0.0941,-0.0987,-0.1078,-0.1144,-0.1234,-0.1277,-0.1334,-0.1348,-0.1395,-0.1369,-0.13,-0.1217,-0.1087,-0.0881,-0.0935,-0.0717,-0.0665,-0.0811,-0.0812,-0.0769,-0.0765,-0.08,-0.0801,-0.0801,-0.0801,0,-0.0765,-0.0835,-0.0929,-0.1047,-0.1086,-0.1151,-0.1259,-0.1302,-0.1376,-0.1398,-0.142,-0.1415,-0.1288,-0.121,-0.1037,-0.0913,-0.0745,-0.0659,-0.0863,-0.0821,-0.0558,-0.056,-0.048,-0.0475,-0.0471,-0.0467,-0.0465,0,-0.0767,-0.0818,-0.0953,-0.1003,-0.1061,-0.1164,-0.1216,-0.1302,-0.1315,-0.1363,-0.1338,-0.1303,-0.1257,-0.0985,-0.087,-0.0672,-0.0611,-0.0575,-0.054,-0.0563,-0.0521,-0.0529,-0.0536,-0.0458,-0.0457,-0.0456,-0.0455,0,-0.076,-0.0811,-0.0878,-0.0985,-0.1055,-0.1129,-0.1195,-0.1199,-0.1258,-0.1326,-0.1236,-0.1154,-0.1024,-0.0873,-0.0751,-0.058,-0.0629,-0.0532,-0.0539,-0.0506,-0.0536,-0.05,-0.0511,-0.0441,-0.0443,-0.0444,-0.0445,0,-0.0731,-0.0765,-0.0857,-0.0943,-0.1022,-0.1059,-0.1117,-0.1112,-0.1139,-0.1171,-0.1099,-0.104,-0.1017,-0.0815,-0.0657,-0.0531,-0.0476,-0.0436,-0.0447,-0.0462,-0.0441,-0.0476,-0.032,0,0,0,0,0,-0.0694,-0.0731,-0.0811,-0.0897,-0.0972,-0.1023,-0.1074,-0.1115,-0.1146,-0.1056,-0.1084,-0.0945,-0.0754,-0.0697,-0.0538,-0.0557,-0.0454,-0.0363,-0.0415,-0.0363,-0.0379,-0.0343,0,0,0,0,0,0,-0.0668,-0.0731,-0.0784,-0.0835,-0.0886,-0.0953,-0.0984,-0.1013,-0.0963,-0.099,-0.0894,-0.0878,-0.0704,-0.0843,-0.053,-0.0495,-0.0495,-0.0299,-0.0294,-0.0354,-0.0369,-0.0382,-0.035,0,0,0,0,0]}]]